DW2738 Weather Reports


Display with metric or nautical units.
time (UTC)temp
F
wind
direction
speed
MPH
gust
MPH
rain 1hr
in
rain 24hr
in
rain mn
in
humidity
%
barometer
mb
20260905145044 74 220 3.0 4.0 0.00 0.10 0.10 86 1010.6
20260905144539 74 258 2.0 3.0 0.00 0.10 0.10 87 1010.9
20260905144038 74 255 3.0 3.0 0.00 0.10 0.10 88 1010.7
20260905143538 73 262 3.0 3.0 0.00 0.10 0.10 88 1010.8
20260905143033 73 258 3.0 3.0 0.00 0.10 0.10 90 1010.5
20260905142531 73 270 2.0 3.0 0.00 0.10 0.10 91 1010.6
20260905142027 72 270 2.0 2.0 0.00 0.10 0.10 92 1010.5
20260905141521 71 260 2.0 3.0 0.00 0.10 0.10 92 1010.6
20260905141018 72 262 2.0 3.0 0.00 0.10 0.10 92 1010.5
20260905140513 72 257 2.0 3.0 0.00 0.10 0.10 90 1010.3
20260905140011 72 261 2.0 2.0 0.00 0.10 0.10 92 1010.5
20260905135508 72 266 3.0 3.0 0.00 0.10 0.10 91 1010.4
20260905135007 72 254 3.0 3.0 0.00 0.10 0.10 92 1010.5
20260905134502 72 254 2.0 3.0 0.00 0.10 0.10 92 1010.5
20260905134001 72 266 3.0 3.0 0.00 0.10 0.10 93 1010.4
20260905133456 72 254 2.0 3.0 0.00 0.10 0.10 94 1010.5
20260905132955 72 247 2.0 2.0 0.00 0.10 0.10 93 1010.3
20260905132451 71 265 2.0 3.0 0.00 0.10 0.10 93 1010.3
20260905131945 71 266 3.0 3.0 0.00 0.10 0.10 94 1010.6
20260905131441 71 266 2.0 3.0 0.00 0.10 0.10 94 1010.4
20260905130936 71 273 3.0 3.0 0.00 0.10 0.10 96 1010.3
20260905130435 71 264 3.0 3.0 0.00 0.10 0.10 98 1010.6
20260905125935 70 239 2.0 3.0 0.00 0.10 0.10 99 1010.4
20260905125430 70 264 1.0 2.0 0.00 0.10 0.10 99 1010.5
20260905124926 70 189 0.0 2.0 0.00 0.10 0.10 99 1010.6
20260905124422 69 245 2.0 3.0 0.00 0.10 0.10 99 1010.5
20260905123922 69 246 3.0 4.0 0.00 0.10 0.10 99 1010.6
20260905123419 69 246 3.0 4.0 0.00 0.10 0.10 99 1010.6
20260905122914 70 259 3.0 3.0 0.00 0.10 0.10 99 1010.6
20260905122413 69 241 3.0 3.0 0.00 0.10 0.10 99 1010.3
20260905121909 69 263 1.0 2.0 0.00 0.10 0.10 99 1010.3
20260905121405 68 246 1.0 3.0 0.00 0.10 0.10 99 1010.4
20260905120904 68 251 2.0 3.0 0.00 0.10 0.10 99 1010.4
20260905120404 68 244 3.0 3.0 0.00 0.10 0.10 99 1010.5
20260905115859 68 258 2.0 2.0 0.00 0.10 0.10 99 1010.3
20260905115358 68 276 1.0 2.0 0.00 0.10 0.10 99 1010.2
20260905114853 68 270 1.0 2.0 0.00 0.10 0.10 99 1010.4
20260905114352 68 270 1.0 2.0 0.00 0.10 0.10 99 1010.1
20260905113852 68 261 2.0 2.0 0.00 0.10 0.10 99 1010.3
20260905113348 68 262 1.0 2.0 0.00 0.10 0.10 99 1010.3
20260905112842 68 254 2.0 2.0 0.00 0.10 0.10 99 1010.2
20260905112337 68 264 2.0 2.0 0.00 0.10 0.10 99 1010.0
20260905111833 67 265 2.0 2.0 0.00 0.10 0.10 99 1010.1
20260905111327 67 270 2.0 2.0 0.00 0.10 0.10 99 1010.0
20260905110826 68 259 2.0 2.0 0.00 0.10 0.10 99 1009.7
20260905110326 67 295 2.0 2.0 0.00 0.10 0.10 99 1009.9
20260905105822 67 276 1.0 2.0 0.00 0.10 0.10 99 1010.0
20260905105321 67 264 1.0 2.0 0.00 0.10 0.10 99 1009.9
20260905104815 67 270 1.0 2.0 0.00 0.10 0.10 99 1009.7
20260905104312 67 255 1.0 2.0 0.00 0.10 0.10 99 1009.6
20260905103811 67 249 1.0 2.0 0.00 0.10 0.10 99 1009.3
20260905103307 67 259 2.0 2.0 0.00 0.10 0.10 99 1009.5
20260905102803 68 255 1.0 2.0 0.00 0.10 0.10 99 1009.5
20260905102259 68 262 1.0 2.0 0.00 0.10 0.10 99 1009.5
20260905101758 68 270 1.0 2.0 0.00 0.10 0.10 99 1009.3
20260905101257 68 265 2.0 2.0 0.00 0.10 0.10 99 1009.4
20260905100752 68 253 2.0 2.0 0.00 0.10 0.10 99 1009.2
20260905100248 68 265 2.0 2.0 0.00 0.10 0.10 99 1009.3
20260905095747 69 257 2.0 2.0 0.00 0.10 0.10 99 1009.3
20260905095247 68 249 1.0 2.0 0.00 0.10 0.10 99 1009.1
20260905094742 69 264 1.0 2.0 0.00 0.10 0.10 99 1009.4
20260905094237 69 270 1.0 2.0 0.00 0.10 0.10 99 1009.4
20260905093736 69 270 1.0 2.0 0.00 0.10 0.10 99 1009.4
20260905093232 69 270 1.0 2.0 0.00 0.10 0.10 99 1009.3
20260905092727 69 251 1.0 2.0 0.00 0.10 0.10 99 1009.4
20260905092223 69 262 1.0 2.0 0.00 0.10 0.10 99 1009.4
20260905091722 69 246 1.0 2.0 0.00 0.10 0.10 99 1009.6
20260905091218 69 253 2.0 2.0 0.00 0.10 0.10 99 1009.5
20260905090717 69 262 1.0 2.0 0.00 0.10 0.10 99 1009.3
20260905090213 69 262 1.0 2.0 0.00 0.10 0.10 99 1009.5
20260905085711 69 270 1.0 2.0 0.00 0.10 0.10 99 1009.3
20260905085206 69 262 1.0 2.0 0.00 0.10 0.10 99 1009.1
20260905084701 69 241 2.0 2.0 0.00 0.10 0.10 99 1009.4
20260905084201 69 250 2.0 2.0 0.00 0.10 0.10 99 1009.2
20260905083655 69 228 2.0 2.0 0.02 0.10 0.10 99 1009.2
20260905083152 70 260 2.0 2.0 0.00 0.10 0.10 99 1009.3
20260905082647 70 255 1.0 2.0 0.00 0.10 0.10 99 1009.1
20260905082142 70 252 2.0 2.0 0.00 0.10 0.10 99 1009.0
20260905081637 70 243 1.0 2.0 0.00 0.10 0.10 99 1009.4
20260905081132 70 255 1.0 1.0 0.00 0.10 0.10 99 1009.0
20260905080626 70 249 0.0 2.0 0.00 0.10 0.10 99 1009.2
20260905080121 70 251 1.0 2.0 0.00 0.10 0.10 99 1009.4
20260905075620 70 255 2.0 2.0 0.00 0.10 0.10 99 1009.2
20260905075120 70 260 2.0 2.0 0.00 0.10 0.10 99 1009.2
20260905074619 70 255 2.0 2.0 0.00 0.10 0.10 99 1009.2
20260905074115 70 251 1.0 2.0 0.00 0.10 0.10 99 1009.3
20260905073610 70 270 2.0 2.0 0.00 0.10 0.10 99 1009.2
20260905073106 71 276 1.0 2.0 0.00 0.10 0.10 99 1009.1
20260905072605 70 254 2.0 2.0 0.00 0.10 0.10 99 1009.0
20260905072101 70 270 1.0 2.0 0.00 0.10 0.10 99 1009.5
20260905071557 70 257 1.0 2.0 0.00 0.10 0.10 99 1009.4
20260905071057 70 254 2.0 3.0 0.00 0.10 0.10 99 1009.4
20260905070552 71 270 1.0 2.0 0.12 0.10 0.10 99 1009.5
20260905070048 71 245 2.0 2.0 0.21 0.10 0.10 99 1009.4
20260905065546 71 288 2.0 3.0 0.09 0.08 0.08 99 1009.8
20260905065042 71 257 2.0 3.0 0.00 0.06 0.06 99 1009.8
20260905064542 72 266 2.0 2.0 0.00 0.06 0.06 99 1009.6
20260905064037 72 261 2.0 2.0 0.00 0.06 0.06 99 1009.7
20260905063536 72 270 1.0 2.0 0.00 0.06 0.06 99 1009.8
20260905063032 72 259 2.0 2.0 0.00 0.06 0.06 99 1009.8
20260905062532 72 276 1.0 2.0 0.00 0.06 0.06 99 1009.9
20260905062027 72 264 2.0 2.0 0.00 0.06 0.06 99 1010.2
20260905061522 72 253 2.0 2.0 0.00 0.06 0.06 99 1010.0
20260905061021 72 239 2.0 3.0 0.00 0.06 0.06 99 1010.2
20260905060517 72 255 2.0 2.0 0.00 0.06 0.06 99 1010.2
20260905060013 72 257 2.0 2.0 0.00 0.06 0.06 99 1010.3
20260905055511 72 265 2.0 3.0 0.00 0.06 0.06 99 1010.3
20260905055006 72 260 2.0 3.0 0.12 0.06 0.06 99 1010.4
20260905054502 73 246 2.0 3.0 0.33 0.06 0.06 99 1010.3
20260905053957 73 274 3.0 3.0 0.19 0.04 0.04 99 1010.2
20260905053451 74 279 2.0 2.0 0.02 0.01 0.01 99 1010.6
20260905052947 74 279 2.0 2.0 0.00 0.00 0.00 99 1010.6
20260905052447 74 279 2.0 2.0 0.00 0.00 0.00 99 1010.5
20260905051946 74 279 2.0 2.0 0.02 0.00 0.00 99 1010.6
20260905051441 74 279 2.0 2.0 0.02 0.00 0.00 99 1010.5
20260905050939 74 279 2.0 2.0 0.00 0.00 0.00 99 1010.7
20260905050429 74 264 2.0 2.0 0.00 0.00 0.00 98 1010.4
20260905045925 74 247 2.0 3.0 0.00 0.00 0.00 98 1010.4
20260905045420 74 302 3.0 5.0 0.00 0.00 0.00 99 1010.4
20260905044915 74 257 2.0 3.0 0.00 0.00 0.00 99 1010.7
20260905044410 74 257 2.0 3.0 0.00 0.00 0.00 99 1010.6
20260905043909 74 246 3.0 3.0 0.00 0.00 0.00 99 1010.6
20260905043404 74 248 2.0 3.0 0.00 0.00 0.00 99 1010.2
20260905042903 74 246 3.0 3.0 0.00 0.00 0.00 99 1010.4
20260905042358 74 250 2.0 2.0 0.00 0.00 0.00 99 1010.3
20260905041853 74 250 2.0 3.0 0.00 0.00 0.00 99 1010.5
20260905041349 74 264 2.0 2.0 0.00 0.00 0.00 99 1010.3
20260905040843 74 264 2.0 2.0 0.00 0.00 0.00 99 1010.4
20260905040342 74 264 2.0 2.0 0.00 0.00 0.00 99 1010.4
20260905035836 74 264 2.0 2.0 0.00 0.00 0.00 99 1010.2
20260905035332 74 258 2.0 2.0 0.00 0.00 0.00 99 1010.5
20260905034828 74 258 2.0 2.0 0.00 0.00 0.00 99 1010.4
20260905034324 74 236 3.0 3.0 0.00 0.00 0.00 99 1010.6
20260905033822 74 236 3.0 3.0 0.00 0.00 0.00 99 1010.5
20260905033318 74 299 2.0 2.0 0.00 0.00 0.00 99 1010.6
20260905032817 74 299 2.0 2.0 0.00 0.00 0.00 99 1010.6
20260905032313 74 299 2.0 2.0 0.00 0.00 0.00 99 1010.5
20260905031808 74 299 2.0 2.0 0.00 0.00 0.00 99 1010.6
20260905031304 74 282 2.0 2.0 0.00 0.00 0.00 99 1010.5
20260905030759 74 245 2.0 2.0 0.00 0.00 0.00 99 1010.5
20260905030254 74 245 2.0 2.0 0.00 0.00 0.00 99 1010.6
20260905025748 74 245 2.0 2.0 0.00 0.00 0.00 99 1010.7
20260905025244 74 245 2.0 2.0 0.00 0.00 0.00 99 1010.6
20260905024739 74 245 2.0 2.0 0.00 0.00 0.00 99 1010.6
20260905024235 74 251 2.0 2.0 0.00 0.00 0.00 99 1010.6
20260905023735 74 270 1.0 2.0 0.00 0.00 0.00 98 1010.3
20260905023230 74 270 1.0 2.0 0.00 0.00 0.00 98 1010.3
20260905022729 74 259 2.0 2.0 0.00 0.00 0.00 98 1010.2
20260905022225 74 259 2.0 2.0 0.00 0.00 0.00 98 1010.3
20260905021719 74 259 2.0 2.0 0.00 0.00 0.00 98 1010.4
20260905021214 74 254 2.0 2.0 0.00 0.00 0.00 98 1010.4
20260905020709 74 233 2.0 3.0 0.00 0.00 0.00 98 1010.3
20260905020204 74 243 2.0 2.0 0.00 0.00 0.00 98 1010.3
20260905015702 74 241 2.0 2.0 0.00 0.00 0.00 98 1010.5
20260905015157 74 241 2.0 2.0 0.00 0.00 0.00 98 1010.4
20260905014655 74 248 2.0 2.0 0.00 0.00 0.00 98 1010.4
20260905014151 74 239 2.0 3.0 0.00 0.00 0.00 98 1010.7
20260905013648 74 270 2.0 2.0 0.00 0.00 0.00 98 1010.5
20260905013143 74 264 2.0 2.0 0.00 0.00 0.00 98 1010.4
20260905012638 74 276 1.0 2.0 0.00 0.00 0.00 98 1010.5
20260905012134 74 264 2.0 2.0 0.00 0.00 0.00 97 1010.5
20260905011630 74 233 2.0 2.0 0.00 0.00 0.00 97 1010.3
20260905011126 74 233 2.0 2.0 0.00 0.00 0.00 97 1010.6
20260905010620 74 241 2.0 2.0 0.00 0.00 0.00 97 1010.6
20260905010117 74 241 2.0 2.0 0.00 0.00 0.00 97 1010.6
20260905005612 74 241 2.0 2.0 0.00 0.00 0.00 97 1010.5
20260905005107 75 239 2.0 2.0 0.00 0.00 0.00 96 1010.4
20260905004601 75 239 2.0 2.0 0.00 0.00 0.00 96 1010.5
20260905004057 75 239 2.0 2.0 0.00 0.00 0.00 96 1010.3
20260905003553 75 245 2.0 2.0 0.00 0.00 0.00 96 1010.4
20260905003048 75 250 2.0 2.0 0.00 0.00 0.00 95 1010.4
20260905002543 75 251 2.0 2.0 0.00 0.00 0.00 95 1010.1
20260905002038 75 243 2.0 2.0 0.00 0.00 0.00 95 1010.1
20260905001533 75 250 2.0 2.0 0.00 0.00 0.00 95 1009.8
20260905001026 75 251 1.0 2.0 0.00 0.00 0.00 94 1009.7
20260905000522 76 232 2.0 2.0 0.00 0.00 0.00 94 1009.7
20260905000019 76 265 2.0 2.0 0.00 0.00 0.00 93 1009.7
20260904235513 77 251 2.0 2.0 0.00 0.00 0.00 93 1009.8
20260904235013 77 251 2.0 2.0 0.00 0.00 0.00 93 1009.8
20260904234513 77 251 2.0 2.0 0.00 0.00 0.00 93 1009.9
20260904234009 77 247 2.0 2.0 0.00 0.00 0.00 93 1010.0
20260904233504 77 254 2.0 2.0 0.00 0.00 0.00 92 1009.9
20260904233000 77 253 2.0 2.0 0.00 0.00 0.00 91 1010.0
20260904232456 77 248 2.0 2.0 0.00 0.00 0.00 91 1009.8
20260904231953 78 251 1.0 2.0 0.00 0.00 0.00 91 1010.0
20260904231448 78 265 2.0 2.0 0.00 0.00 0.00 91 1010.1
20260904230943 78 260 2.0 2.0 0.00 0.00 0.00 91 1010.1
20260904230442 79 264 2.0 2.0 0.00 0.00 0.00 91 1009.9
20260904225937 79 261 2.0 2.0 0.00 0.00 0.00 91 1010.0
20260904225435 79 261 2.0 2.0 0.00 0.00 0.00 91 1010.0
20260904224935 79 252 2.0 3.0 0.00 0.00 0.00 90 1010.2
20260904224431 79 252 2.0 3.0 0.00 0.00 0.00 90 1010.0
20260904223930 79 257 2.0 3.0 0.00 0.00 0.00 89 1010.0
20260904223429 80 243 2.0 3.0 0.00 0.00 0.00 89 1010.3
20260904222925 80 255 3.0 3.0 0.00 0.00 0.00 89 1010.0
20260904222420 80 254 2.0 3.0 0.00 0.00 0.00 86 1010.2
20260904221915 81 264 2.0 2.0 0.00 0.00 0.00 86 1010.3
20260904221409 81 261 2.0 3.0 0.00 0.00 0.00 86 1010.0
20260904220905 81 257 2.0 3.0 0.00 0.00 0.00 86 1010.0
20260904220403 81 270 2.0 3.0 0.00 0.00 0.00 86 1010.0
20260904215900 81 252 2.0 3.0 0.00 0.00 0.00 85 1010.2
20260904215354 82 259 3.0 3.0 0.00 0.00 0.00 84 1010.2
20260904214850 82 259 3.0 3.0 0.00 0.00 0.00 85 1010.4
20260904214346 82 257 2.0 3.0 0.00 0.00 0.00 85 1010.2
20260904213844 82 270 2.0 3.0 0.00 0.00 0.00 83 1010.2
20260904213339 82 258 3.0 3.0 0.00 0.00 0.00 82 1010.1
20260904212836 82 252 2.0 3.0 0.00 0.00 0.00 82 1010.2
20260904212335 83 252 3.0 3.0 0.00 0.00 0.00 82 1009.9
20260904211830 83 255 3.0 3.0 0.00 0.00 0.00 81 1009.9
20260904211326 84 264 2.0 3.0 0.00 0.00 0.00 80 1010.1
20260904210821 83 256 4.0 4.0 0.00 0.00 0.00 79 1010.1
20260904210320 84 266 3.0 3.0 0.00 0.00 0.00 80 1010.0
20260904205816 84 266 2.0 3.0 0.00 0.00 0.00 79 1010.2
20260904205312 84 255 3.0 3.0 0.00 0.00 0.00 77 1010.2
20260904204809 85 263 3.0 3.0 0.00 0.00 0.00 76 1010.1
20260904204304 85 262 2.0 3.0 0.00 0.00 0.00 76 1010.3
20260904203800 86 274 3.0 3.0 0.00 0.00 0.00 75 1010.1
20260904203256 87 258 2.0 4.0 0.00 0.00 0.00 75 1010.0
20260904202752 86 274 2.0 4.0 0.00 0.00 0.00 72 1010.1
20260904202248 86 267 4.0 4.0 0.00 0.00 0.00 72 1010.1
20260904201744 86 266 3.0 3.0 0.00 0.00 0.00 71 1009.9
20260904201243 86 258 4.0 4.0 0.00 0.00 0.00 70 1010.0
20260904200738 86 266 3.0 4.0 0.00 0.00 0.00 70 1010.2
20260904200233 88 281 3.0 5.0 0.00 0.00 0.00 68 1010.4
20260904195732 87 225 3.0 5.0 0.00 0.00 0.00 70 1010.2
20260904195231 88 270 0.0 4.0 0.00 0.00 0.00 68 1010.4
20260904194726 88 264 3.0 3.0 0.00 0.00 0.00 65 1010.3
20260904194225 89 265 4.0 5.0 0.00 0.00 0.00 64 1010.4
20260904193721 89 270 3.0 5.0 0.00 0.00 0.00 67 1010.6
20260904193216 89 265 2.0 6.0 0.00 0.00 0.00 62 1010.7
20260904192711 89 221 2.0 5.0 0.00 0.00 0.00 63 1010.6
20260904192206 89 245 2.0 3.0 0.00 0.00 0.00 64 1010.9
20260904191703 89 250 5.0 5.0 0.00 0.00 0.00 67 1011.0
20260904191159 89 275 2.0 5.0 0.00 0.00 0.00 69 1010.8
20260904190655 87 215 0.0 5.0 0.00 0.00 0.00 69 1011.1
20260904190151 87 255 4.0 5.0 0.00 0.00 0.00 73 1010.8
20260904185647 86 262 4.0 4.0 0.00 0.00 0.00 72 1011.1
20260904185142 87 249 3.0 4.0 0.00 0.00 0.00 71 1011.1
20260904184640 87 265 2.0 4.0 0.00 0.00 0.00 71 1010.9
20260904184136 86 257 4.0 4.0 0.00 0.00 0.00 70 1011.0
20260904183632 88 247 3.0 4.0 0.00 0.00 0.00 70 1011.2
20260904183126 86 267 4.0 4.0 0.00 0.00 0.00 69 1011.2
20260904182621 88 284 3.0 3.0 0.00 0.00 0.00 69 1011.3
20260904182116 88 284 3.0 3.0 0.00 0.00 0.00 69 1011.3
20260904181612 89 255 2.0 4.0 0.00 0.00 0.00 66 1011.2
20260904181112 88 126 3.0 4.0 0.00 0.00 0.00 66 1011.1
20260904180607 87 270 3.0 4.0 0.00 0.00 0.00 66 1011.1
20260904175602 88 270 2.0 3.0 0.00 0.00 0.00 67 1011.0
20260904175100 88 204 0.0 3.0 0.00 0.00 0.00 65 1010.9
20260904174555 88 260 4.0 4.0 0.00 0.00 0.00 68 1011.1
20260904174052 88 247 3.0 6.0 0.00 0.00 0.00 67 1011.0
20260904173551 88 261 5.0 6.0 0.00 0.00 0.00 72 1011.4
20260904173047 88 244 4.0 5.0 0.00 0.00 0.00 68 1011.1
20260904172543 87 265 4.0 5.0 0.00 0.00 0.00 71 1011.1
20260904172042 88 270 3.0 5.0 0.00 0.00 0.00 71 1011.5
20260904171537 87 226 4.0 4.0 0.00 0.00 0.00 69 1011.2
20260904171033 89 302 3.0 4.0 0.00 0.00 0.00 72 1011.3
20260904170528 88 264 3.0 5.0 0.00 0.00 0.00 68 1011.3
20260904170025 88 300 2.0 3.0 0.00 0.00 0.00 68 1011.4
20260904165523 86 256 3.0 4.0 0.00 0.00 0.00 68 1011.3
20260904165022 87 304 3.0 4.0 0.00 0.00 0.00 69 1011.3
20260904164518 87 265 2.0 2.0 0.00 0.00 0.00 73 1011.4
20260904164014 87 270 1.0 4.0 0.00 0.00 0.00 72 1011.2
20260904163513 87 282 3.0 4.0 0.00 0.00 0.00 72 1011.3
20260904163009 88 274 2.0 4.0 0.00 0.00 0.00 72 1011.1
20260904162503 88 251 4.0 4.0 0.00 0.00 0.00 68 1011.4
20260904161958 88 270 3.0 3.0 0.00 0.00 0.00 70 1011.3
20260904161453 88 264 3.0 5.0 0.00 0.00 0.00 72 1011.3
20260904160949 87 270 2.0 5.0 0.00 0.00 0.00 73 1011.6
20260904160443 86 267 3.0 5.0 0.00 0.00 0.00 75 1011.7
20260904155938 86 264 3.0 4.0 0.00 0.00 0.00 75 1011.7
20260904155433 87 317 4.0 4.0 0.00 0.00 0.00 73 1011.8
20260904154931 87 248 3.0 4.0 0.00 0.00 0.00 72 1011.8
20260904154427 87 270 2.0 5.0 0.00 0.00 0.00 76 1011.6
20260904153921 86 265 4.0 5.0 0.00 0.00 0.00 75 1011.5
20260904153417 86 257 1.0 3.0 0.00 0.00 0.00 75 1011.8
20260904152913 85 229 2.0 4.0 0.00 0.00 0.00 77 1011.7
20260904152408 85 251 3.0 5.0 0.00 0.00 0.00 78 1011.7
20260904151907 84 267 4.0 6.0 0.00 0.00 0.00 75 1011.6
20260904151402 84 248 4.0 5.0 0.00 0.00 0.00 77 1011.8
20260904150858 84 253 4.0 5.0 0.00 0.00 0.00 78 1011.8
20260904150352 84 264 3.0 4.0 0.00 0.00 0.00 79 1011.8
20260904145850 84 188 0.0 5.0 0.00 0.00 0.00 75 1011.7
20260904145347 84 270 3.0 4.0 0.00 0.00 0.00 80 1011.7